BORDANYWX Weather Reports


Display with metric or nautical units.
time (UTC)temp
F
wind
direction
speed
MPH
gust
MPH
rain 1hr
in
rain 24hr
in
rain mn
in
humidity
%
barometer
mb
20260504173908 69 174 6.0 6.0 0.00 0.00 0.00 39 1016.0
20260504172908 73 169 6.0 7.0 0.00 0.00 0.00 33 1016.0
20260504171907 73 169 6.0 7.0 0.00 0.00 0.00 33 1016.0
20260504170907 74 169 6.0 7.0 0.00 0.00 0.00 34 1016.0
20260504150901 75 160 5.0 5.0 0.00 0.00 0.00 30 1016.0
20260504140858 75 160 5.0 5.0 0.00 0.00 0.00 30 1016.0
20260504081841 66 185 5.0 5.0 0.00 0.00 0.00 41 1019.0
20260504080841 66 185 5.0 5.0 0.00 0.00 0.00 41 1019.0
20260504045831 48 178 5.0 5.0 0.00 0.00 0.00 62 1019.0
20260504044831 48 178 5.0 5.0 0.00 0.00 0.00 62 1019.0
20260504043830 48 178 5.0 5.0 0.00 0.00 0.00 62 1019.0
20260504042829 48 178 5.0 5.0 0.00 0.00 0.00 62 1019.0
20260504041829 48 178 5.0 5.0 0.00 0.00 0.00 62 1019.0
20260504040828 48 178 5.0 5.0 0.00 0.00 0.00 62 1019.0
20260504035828 49 178 5.0 5.0 0.00 0.00 0.00 62 1019.0
20260504034827 49 178 5.0 5.0 0.00 0.00 0.00 62 1019.0
20260504033827 54 166 5.0 5.0 0.00 0.00 0.00 55 1019.0
20260504032826 54 166 5.0 5.0 0.00 0.00 0.00 55 1019.0
20260504031825 54 166 5.0 5.0 0.00 0.00 0.00 55 1019.0
20260504030825 54 166 5.0 5.0 0.00 0.00 0.00 55 1019.0
20260504025824 54 166 5.0 5.0 0.00 0.00 0.00 55 1019.0
20260504024824 54 166 5.0 5.0 0.00 0.00 0.00 55 1019.0
20260504023824 54 166 5.0 5.0 0.00 0.00 0.00 55 1019.0
20260504022823 54 166 5.0 5.0 0.00 0.00 0.00 55 1019.0
20260504021823 54 166 5.0 5.0 0.00 0.00 0.00 55 1019.0
20260504020822 54 166 5.0 5.0 0.00 0.00 0.00 55 1019.0
20260504015822 54 166 5.0 5.0 0.00 0.00 0.00 55 1019.0
20260504014821 54 166 5.0 5.0 0.00 0.00 0.00 55 1019.0
20260504013821 54 166 5.0 5.0 0.00 0.00 0.00 55 1019.0
20260504012821 54 166 5.0 5.0 0.00 0.00 0.00 55 1020.0
20260504011820 54 166 5.0 5.0 0.00 0.00 0.00 55 1020.0
20260504010820 54 166 5.0 5.0 0.00 0.00 0.00 55 1020.0
20260504005819 54 166 5.0 5.0 0.00 0.00 0.00 55 1020.0
20260504004819 54 166 5.0 5.0 0.00 0.00 0.00 55 1020.0
20260504003818 54 166 5.0 5.0 0.00 0.00 0.00 55 1020.0
20260504002818 54 166 5.0 5.0 0.00 0.00 0.00 55 1020.0
20260504001818 54 166 5.0 5.0 0.00 0.00 0.00 55 1020.0
20260504000817 54 166 5.0 5.0 0.00 0.00 0.00 55 1020.0
20260503235816 54 166 5.0 5.0 0.00 0.00 0.00 55 1020.0
20260503234816 54 166 5.0 5.0 0.00 0.00 0.00 55 1020.0
20260503233815 54 166 5.0 5.0 0.00 0.00 0.00 55 1020.0
20260503232815 54 166 5.0 5.0 0.00 0.00 0.00 55 1020.0
20260503231815 54 166 5.0 5.0 0.00 0.00 0.00 55 1020.0
20260503230814 54 166 5.0 5.0 0.00 0.00 0.00 55 1020.0
20260503225813 54 166 5.0 5.0 0.00 0.00 0.00 55 1020.0
20260503224813 54 166 5.0 5.0 0.00 0.00 0.00 55 1020.0
20260503223812 54 166 5.0 5.0 0.00 0.00 0.00 55 1020.0
20260503222812 54 166 5.0 5.0 0.00 0.00 0.00 55 1020.0
20260503221811 54 166 5.0 5.0 0.00 0.00 0.00 55 1020.0
20260503220811 54 166 5.0 5.0 0.00 0.00 0.00 55 1020.0
20260503215810 54 166 5.0 5.0 0.00 0.00 0.00 55 1020.0
20260503214810 54 166 5.0 5.0 0.00 0.00 0.00 55 1020.0
20260503213809 54 166 5.0 5.0 0.00 0.00 0.00 55 1020.0
20260503212809 54 166 5.0 5.0 0.00 0.00 0.00 55 1020.0
20260503211808 54 166 5.0 5.0 0.00 0.00 0.00 55 1020.0
20260503210808 54 166 5.0 5.0 0.00 0.00 0.00 55 1020.0
20260503205807 54 166 5.0 5.0 0.00 0.00 0.00 55 1020.0
20260503204807 54 166 5.0 5.0 0.00 0.00 0.00 55 1020.0
20260503203806 54 166 5.0 5.0 0.00 0.00 0.00 55 1020.0
20260503202806 54 166 5.0 5.0 0.00 0.00 0.00 55 1020.0
20260503201805 54 166 5.0 5.0 0.00 0.00 0.00 55 1020.0
20260503200805 54 166 5.0 5.0 0.00 0.00 0.00 55 1020.0
20260503195804 54 166 5.0 5.0 0.00 0.00 0.00 55 1020.0
20260503194803 59 143 4.0 5.0 0.00 0.00 0.00 51 1020.0
20260503193803 59 143 4.0 5.0 0.00 0.00 0.00 51 1020.0
20260503192802 59 143 4.0 5.0 0.00 0.00 0.00 51 1019.0
20260503191801 59 143 4.0 5.0 0.00 0.00 0.00 51 1019.0
20260503190801 59 143 4.0 5.0 0.00 0.00 0.00 51 1019.0
20260503185800 59 143 4.0 5.0 0.00 0.00 0.00 51 1019.0
20260503184800 59 143 4.0 5.0 0.00 0.00 0.00 51 1019.0
20260503183759 61 138 4.0 4.0 0.00 0.00 0.00 46 1019.0
20260503182759 61 138 4.0 4.0 0.00 0.00 0.00 46 1019.0
20260503181758 63 138 4.0 4.0 0.00 0.00 0.00 46 1019.0
20260503175757 64 138 4.0 4.0 0.00 0.00 0.00 46 1019.0